Location: Arbon
(43.0005°N, 0.7472°E)
Time: 11:49:47
(UTC+00:00)

YAOGAN 11 - Pass Details

Date: 22 April 2026
Orbit: 599 x 647 km, 98.4° (Epoch: 21 May)

Event Time Altitude Azimuth Distance (km) Brightness Sun altitude
Rises 20:14:54 0° 20° (NNE) 2,878 7.7 -15.2°
Reaches altitude 10° 20:17:10 10° 27° (NNE) 1,975 6.7 -15.5°
Maximum altitude 20:21:16 43° 99° (E) 872 4.4 -16.1°
Enters shadow 20:23:11 27° 154° (SSE) 1,205 5.0 -16.4°
